Weather History for South Bend, IN

Change the Weather History Date:

Wednesday, June 13, 2012

  Actual Average Record
Temperature  
Mean Temperature 62 °F 69 °F  
Max Temperature 76 °F 79 °F 96 °F (1988)
Min Temperature 47 °F 58 °F 40 °F (1933)
Degree Days  
Heating Degree Days 3 1  
Month to date heating degree days 29 30  
Since 1 June heating degree days 29 30  
Since 1 July heating degree days 5103 6284  
Cooling Degree Days 0 5  
Month to date cooling degree days 42 50  
Year to date cooling degree days 200 106  
Since 1 June cooling degree days 42 50  
Growing Degree Days 10 (Base 50)    
Moisture  
Dew Point 42 °F    
Average Humidity 56    
Maximum Humidity 86    
Minimum Humidity 25    
Precipitation  
Precipitation 0.00 in 0.13 in 2.72 in (1981)
Month to date precipitation 0.17 1.71  
Year to date precipitation 11.47 15.43  
Snow  
Snow 0.00 in - - ()
Month to date snowfall 0.0  
Snow Depth 0.00 in    
Sea Level Pressure  
Sea Level Pressure 30.17 in    
Wind  
Wind Speed 5 mph (NE)    
Max Wind Speed 15 mph    
Max Gust Speed 17 mph    
Visibility 10 miles    
Events      
T = Trace of Precipitation, MM = Missing Value Source: NWS Daily Summary

Daily Weather History Graph

Daily Weather History Graph

Search for Another Location

Airport:

Trip Planner

Search our weather history database for the weather conditions in past years. The results will help you decide how hot, cold, wet, or windy it might be!

Date:

Astronomy

Jun. 13, 2012 Rise Set
Actual Time 6:10 AM EDT 9:20 PM EDT
Civil Twilight 5:35 AM EDT 9:55 PM EDT
Nautical Twilight 4:52 AM EDT 10:38 PM EDT
Astronomical Twilight 3:59 AM EDT 11:31 PM EDT
Moon 2:27 AM EDT (6/13) 4:03 PM EDT (6/13)
Length of Visible Light 16h 19m
Length of Day
15h 10m
Waning Crescent, 29% of the Moon is Illuminated
Jun 13
Waning Crescent
Jun 19
New
Jun 26
First Quarter
Jul 3
Full
Jul 10
Last Quarter

Hourly Weather History & Observations

Time (EDT) Temp. Dew Point Humidity Pressure Visibility Wind Dir Wind Speed Gust Speed Precip Events Conditions
12:54 AM 50.0 °F 44.1 °F 80% 30.16 in 10.0 mi Calm Calm - N/A   Clear
1:54 AM 51.1 °F 45.0 °F 80% 30.16 in 10.0 mi Calm Calm - N/A   Clear
2:54 AM 53.1 °F 46.0 °F 77% 30.16 in 10.0 mi ENE 3.5 mph - N/A   Clear
3:54 AM 53.6 °F 44.6 °F 72% 30.16 in 10.0 mi Calm Calm - N/A   Clear
4:54 AM 48.9 °F 43.0 °F 80% 30.19 in 10.0 mi Calm Calm - N/A   Clear
5:54 AM 48.9 °F 44.1 °F 83% 30.20 in 10.0 mi NNE 4.6 mph - N/A   Clear
6:54 AM 52.0 °F 45.0 °F 77% 30.20 in 10.0 mi NE 4.6 mph - N/A   Clear
7:54 AM 55.0 °F 45.0 °F 69% 30.21 in 10.0 mi East 4.6 mph - N/A   Clear
8:54 AM 59.0 °F 43.0 °F 55% 30.22 in 10.0 mi East 8.1 mph - N/A   Clear
9:54 AM 62.1 °F 41.0 °F 46% 30.22 in 10.0 mi East 5.8 mph - N/A   Clear
10:54 AM 64.9 °F 41.0 °F 42% 30.22 in 10.0 mi East 8.1 mph - N/A   Clear
11:54 AM 68.0 °F 37.9 °F 33% 30.22 in 10.0 mi ENE 6.9 mph - N/A   Clear
12:54 PM 70.0 °F 36.0 °F 29% 30.22 in 10.0 mi ENE 6.9 mph - N/A   Clear
1:54 PM 72.0 °F 36.0 °F 27% 30.20 in 10.0 mi Calm Calm - N/A   Clear
2:54 PM 73.9 °F 36.0 °F 25% 30.17 in 10.0 mi Variable 4.6 mph 17.3 mph N/A   Clear
3:54 PM 73.9 °F 37.0 °F 26% 30.15 in 10.0 mi Variable 3.5 mph - N/A   Clear
4:54 PM 73.9 °F 36.0 °F 25% 30.15 in 10.0 mi East 5.8 mph - N/A   Clear
5:54 PM 75.0 °F 37.9 °F 26% 30.15 in 10.0 mi North 6.9 mph - N/A   Clear
6:54 PM 73.0 °F 39.0 °F 29% 30.15 in 10.0 mi NNE 6.9 mph - N/A   Clear
7:54 PM 69.1 °F 46.9 °F 45% 30.14 in 10.0 mi North 10.4 mph - N/A   Clear
8:54 PM 64.0 °F 46.9 °F 54% 30.14 in 10.0 mi North 4.6 mph - N/A   Clear
9:54 PM 60.1 °F 46.9 °F 62% 30.13 in 10.0 mi North 5.8 mph - N/A   Clear
10:54 PM 57.0 °F 46.9 °F 69% 30.13 in 10.0 mi NNE 5.8 mph - N/A   Clear
11:54 PM 55.9 °F 46.0 °F 69% 30.13 in 10.0 mi Calm Calm - N/A   Clear